Temp
79 79 78 78 77 76 75 75 75 75 75 75 74 75 75 75 75 75 75 74 74 74 75 74 75 75 75 75 74 75 75 74 74 74 74 74 74 74 75 74 74 73 73 73 72 72 72 72 73 73 73 74 74 73 76 78 77 76 75 74 73 73
79 79 79 78 77 76 75 76 75 75 75 75 75 75 75 76 76 75 75 75 74 75 75 75 75 76 74 75 75 74 75 74 74 74 74 74 74 74 74 74 74 74 73 72 73 73 72 73 73 73 73 73 73 75 79 78 77 76 75 73 72 72
80 79 79 79 78 76 76 76 76 76 75 75 75 75 75 76 77 77 76 76 74 75 75 74 74 75 74 75 74 75 74 74 74 74 74 74 73 73 73 74 74 74 73 72 72 74 74 74 74 75 74 73 73 77 78 78 77 75 74 73 72 74
78 78 78 78 78 77 77 77 77 76 76 75 75 77 77 78 77 77 76 74 74 75 74 74 76 76 75 74 74 74 75 74 74 74 74 73 73 73 73 74 74 74 73 73 74 75 76 76 75 74 74 75 77 78 78 77 77 75 74 75 74 74
78 78 79 78 77 77 77 77 77 77 76 75 75 73 73 74 75 75 74 74 75 75 74 74 73 73 74 74 74 74 73 73 73 73 73 73 72 74 73 74 73 73 73 74 74 74 76 77 76 77 76 77 78 78 78 77 77 75 73 72 72 73
77 77 78 78 78 78 77 77 77 76 74 70 69 71 72 73 73 74 75 75 74 73 73 73 73 73 74 74 74 73 73 74 73 74 73 74 74 74 73 76 75 74 74 74 74 74 75 74 75 76 77 78 78 77 78 77 76 74 73 72 72 73
76 78 79 80 79 77 75 76 76 75 71 69 69 70 70 72 73 74 75 74 72 71 71 72 72 73 74 75 74 74 74 74 74 74 74 75 75 75 75 76 75 75 75 76 75 75 75 76 75 75 74 78 76 77 77 76 75 74 72 71 72 73
77 76 76 78 76 74 74 75 74 72 71 69 69 69 70 71 73 73 73 73 72 71 72 72 73 73 75 76 76 76 76 76 76 76 75 76 76 75 76 76 76 78 77 76 76 75 74 76 71 71 69 69 69 73 75 76 74 74 72 71 72 72
77 75 70 70 74 74 72 72 72 69 70 70 68 69 71 72 73 73 73 73 72 71 73 73 73 74 75 75 76 76 76 76 76 77 76 75 76 75 75 75 75 76 75 73 70 71 72 73 69 70 70 70 69 70 73 75 74 74 73 72 71 72
73 71 71 70 73 72 69 69 70 70 69 70 68 69 71 72 73 73 72 74 72 71 72 74 73 74 74 75 76 76 75 76 75 76 76 75 75 75 74 75 74 75 75 73 70 70 70 70 70 70 72 69 69 70 72 74 74 72 73 72 71 71
70 71 70 69 69 70 71 70 72 74 72 71 70 70 72 73 74 73 72 73 71 71 72 75 75 75 76 76 76 75 75 76 76 77 77 77 77 76 76 75 74 72 70 72 69 69 70 70 70 71 69 68 67 69 71 72 70 73 73 72 71 71
68 70 70 69 69 69 70 72 73 73 72 72 72 71 72 72 72 73 72 71 70 70 71 73 75 77 76 75 75 75 75 75 74 77 77 77 76 77 76 77 76 75 73 71 69 70 71 68 67 70 71 69 69 68 69 71 69 68 69 72 72 71
69 71 70 70 69 70 71 71 70 71 71 71 71 72 71 71 72 73 72 71 70 71 70 73 75 77 77 76 75 75 75 75 76 76 77 77 77 76 75 74 73 74 73 73 70 70 71 68 68 70 71 70 70 69 70 69 67 67 67 67 70 72
70 71 70 70 70 71 71 70 70 71 70 71 72 71 70 70 71 72 72 72 71 70 71 73 77 76 76 76 75 75 75 75 75 76 75 76 75 76 74 74 73 72 73 72 71 71 70 68 67 67 69 69 66 67 68 68 67 67 67 68 68 69
71 71 71 70 71 71 72 70 70 70 69 71 71 71 71 70 69 71 73 71 72 70 72 75 77 76 76 76 75 75 75 75 75 75 75 75 75 75 74 73 72 72 71 69 70 71 70 68 66 68 68 69 68 69 68 68 68 67 67 67 69 69
72 71 71 71 71 72 71 70 71 71 69 71 70 70 69 68 71 72 73 72 74 71 74 77 77 77 74 75 75 75 75 76 76 75 75 74 75 74 72 71 71 71 69 70 71 70 70 69 68 68 67 68 68 68 68 68 67 66 66 67 69 69
71 71 72 71 71 71 70 71 71 72 71 69 68 68 69 69 70 71 74 74 75 76 77 77 77 76 73 75 76 76 75 76 76 75 74 74 74 73 71 71 70 71 71 69 71 71 70 70 69 68 68 68 68 68 68 68 67 67 68 68 69 68
72 72 72 71 71 70 71 71 71 72 72 69 69 68 69 70 69 71 74 74 73 73 75 77 76 74 72 75 77 76 75 76 75 74 74 74 73 72 71 70 68 70 71 70 70 70 69 69 70 68 68 68 68 68 68 69 69 70 69 68 69 68
72 72 72 72 70 71 70 70 71 71 70 69 67 68 68 68 68 69 70 72 74 74 72 74 74 74 72 74 75 74 74 75 74 74 74 74 72 72 70 70 69 68 71 70 70 70 70 70 69 69 69 67 69 69 69 68 69 68 68 68 69 70
72 72 72 70 70 69 70 69 68 69 68 68 69 68 67 68 68 68 69 69 73 74 74 74 74 74 74 74 73 72 73 75 74 74 73 72 72 71 70 70 69 69 69 70 71 71 71 70 68 68 67 67 68 69 70 68 69 69 68 68 69 68
72 72 71 70 70 69 68 68 67 68 67 70 69 68 67 67 68 67 69 70 69 69 70 73 72 74 74 72 73 73 74 74 74 73 73 73 72 72 72 70 69 70 69 69 69 70 71 71 67 64 65 66 66 68 69 69 68 67 68 67 67 67
72 71 71 71 71 70 71 70 68 69 70 71 69 67 65 66 66 68 68 69 68 69 69 67 71 73 73 73 72 73 73 73 73 73 73 74 72 72 72 70 70 69 71 69 69 71 71 70 66 63 62 62 63 66 67 68 69 70 69 69 68 69
72 71 71 71 71 70 71 71 71 69 70 66 67 68 69 68 68 67 67 68 69 69 69 69 71 74 73 74 73 73 73 72 73 73 72 71 70 71 71 70 71 69 68 68 69 71 70 70 65 66 66 63 59 58 60 63 65 67 70 69 68 70
72 72 71 71 71 72 72 70 70 69 69 67 65 67 67 67 68 68 67 69 69 69 69 69 73 76 76 74 72 72 73 71 71 72 72 71 70 71 70 70 71 71 70 66 68 68 71 69 68 67 60 62 61 61 56 59 62 65 68 69 70 70
71 69 69 68 70 69 69 67 67 67 67 66 67 67 66 66 68 68 68 68 67 69 69 69 72 74 74 73 73 72 73 73 71 71 73 72 72 72 73 72 72 70 70 68 66 66 68 70 68 67 65 62 60 59 59 61 63 61 65 67 70 71
70 69 70 70 68 66 66 65 64 64 64 64 64 65 64 65 66 67 68 69 69 70 71 71 75 74 75 73 73 72 73 74 71 71 73 72 73 73 73 73 73 71 70 69 68 67 66 67 67 68 68 66 65 61 60 63 62 56 64 67 69 74
68 69 69 68 68 67 65 65 66 66 65 64 64 66 69 69 69 70 71 69 71 71 71 72 72 75 75 75 74 73 73 73 73 72 74 73 71 72 72 75 72 72 71 70 69 66 66 65 65 67 69 69 68 68 68 64 59 61 58 62 66 67
70 69 69 69 68 66 66 65 66 66 64 64 65 67 69 69 69 69 69 70 71 72 74 74 73 75 75 75 73 73 73 72 73 75 74 73 72 73 73 74 72 71 70 68 67 66 65 65 64 63 68 67 67 69 69 69 68 64 61 58 60 66
69 69 69 69 68 67 66 66 65 63 62 64 66 68 69 69 68 68 68 67 69 73 74 74 73 74 73 74 73 73 74 74 73 74 75 75 73 75 73 70 71 68 68 66 66 66 65 65 65 65 65 66 68 67 67 68 67 66 62 60 60 62
68 68 69 68 67 67 67 66 64 63 63 64 65 68 69 68 67 67 66 66 68 68 71 73 74 75 74 73 74 74 74 74 73 74 73 74 73 73 72 71 71 69 68 68 67 66 66 66 67 67 67 66 65 64 64 64 65 64 65 65 60 62
66 66 67 66 67 66 66 67 65 64 64 65 66 67 67 67 66 66 66 66 66 68 71 73 74 74 74 75 74 74 73 74 74 73 73 74 72 73 71 71 71 70 69 68 68 68 68 68 68 67 67 68 65 64 62 62 63 65 63 61 61 62
65 66 66 67 67 66 67 66 66 65 66 66 66 66 66 66 66 66 66 66 67 69 71 72 72 73 72 74 73 73 73 73 72 72 73 73 72 73 72 72 70 70 70 70 70 70 69 68 69 68 69 68 67 66 65 64 67 66 65 62 64 62
64 66 67 68 67 66 66 67 67 67 67 67 66 66 66 66 67 66 66 67 68 68 70 70 70 71 72 72 72 72 72 71 72 72 73 74 71 74 72 70 70 70 69 69 69 70 68 68 69 67 66 68 68 68 67 68 68 68 68 66 64 63
65 66 66 67 67 66 67 67 67 67 68 67 66 66 65 67 67 67 67 68 69 69 70 70 70 70 72 73 72 74 74 73 73 73 73 73 73 74 73 72 71 70 70 68 69 69 69 69 69 68 68 67 68 68 67 69 68 68 67 66 64 65
66 67 67 67 67 67 67 67 68 68 67 67 66 66 66 67 67 67 68 68 69 71 70 71 72 72 73 72 73 73 73 73 73 73 73 72 74 73 72 72 72 71 68 69 69 69 68 69 69 69 68 68 67 67 69 70 69 69 70 69 67 66
68 68 67 67 67 67 67 68 68 67 67 67 66 66 66 66 67 68 67 68 69 71 72 71 72 72 72 73 72 73 73 73 73 73 72 73 73 73 72 70 69 69 69 72 69 69 68 69 68 69 68 68 68 67 68 70 70 69 70 70 68 66
69 69 68 68 68 68 68 68 67 68 68 67 67 66 66 66 66 67 67 67 69 72 73 73 73 73 72 72 72 72 72 72 72 72 72 72 73 73 72 71 70 69 69 70 69 69 68 68 68 68 67 68 67 68 68 70 70 70 70 68 68 67
MSLP
1012.46 1012.78 1013.02 1013.26 1013.49 1013.73 1014.02 1014.22 1014.49 1014.73 1014.97 1015.22 1015.46 1015.61 1015.78 1015.90 1016.05 1016.17 1016.34 1016.49 1016.66 1016.73 1016.82 1016.97 1017.05 1017.14 1017.26 1017.38 1017.46 1017.61 1017.73 1017.82 1017.97 1018.17 1018.29 1018.34 1018.41 1018.58 1018.66 1018.78 1018.90 1018.93 1018.93 1018.93 1018.85 1018.78 1018.82 1018.82 1018.85 1018.85 1018.82 1018.73 1018.70 1018.61 1018.53 1018.66 1019.02 1019.34 1019.66 1019.93 1020.14 1020.29
1012.38 1012.66 1012.90 1013.17 1013.41 1013.73 1014.02 1014.17 1014.41 1014.70 1015.02 1015.29 1015.58 1015.78 1015.93 1016.09 1016.17 1016.34 1016.46 1016.58 1016.66 1016.70 1016.73 1016.93 1017.05 1017.17 1017.29 1017.46 1017.61 1017.73 1017.85 1017.97 1018.05 1018.26 1018.41 1018.46 1018.49 1018.66 1018.73 1018.82 1018.90 1018.93 1018.93 1018.93 1018.93 1018.90 1018.93 1018.90 1018.85 1018.82 1018.78 1018.70 1018.66 1018.49 1018.46 1018.78 1019.09 1019.58 1019.93 1020.22 1020.38 1020.49
1012.17 1012.46 1012.78 1013.05 1013.34 1013.70 1013.90 1014.02 1014.29 1014.66 1015.02 1015.34 1015.58 1015.70 1015.93 1016.14 1016.22 1016.29 1016.46 1016.53 1016.66 1016.66 1016.78 1016.93 1017.09 1017.17 1017.38 1017.49 1017.66 1017.78 1017.93 1018.05 1018.17 1018.29 1018.49 1018.53 1018.58 1018.70 1018.82 1018.90 1018.90 1018.93 1018.97 1019.02 1018.97 1018.90 1018.93 1018.93 1018.90 1018.82 1018.78 1018.70 1018.61 1018.41 1018.53 1018.90 1019.29 1019.70 1020.14 1020.41 1020.58 1020.61
1012.14 1012.41 1012.73 1012.97 1013.17 1013.49 1013.73 1013.90 1014.17 1014.49 1014.93 1015.29 1015.53 1015.61 1015.82 1015.97 1016.14 1016.26 1016.46 1016.58 1016.66 1016.73 1016.90 1017.05 1017.14 1017.26 1017.41 1017.61 1017.82 1017.90 1018.02 1018.14 1018.26 1018.34 1018.46 1018.58 1018.66 1018.73 1018.85 1018.90 1018.93 1018.97 1019.09 1019.05 1018.97 1018.93 1018.93 1018.90 1018.85 1018.82 1018.78 1018.70 1018.53 1018.53 1018.70 1019.02 1019.38 1019.82 1020.17 1020.58 1020.82 1020.90
1012.09 1012.41 1012.61 1012.85 1013.14 1013.41 1013.53 1013.73 1013.97 1014.38 1014.73 1015.09 1015.22 1015.66 1015.90 1016.05 1016.17 1016.34 1016.49 1016.58 1016.66 1016.78 1017.02 1017.17 1017.29 1017.41 1017.53 1017.70 1017.85 1018.02 1018.17 1018.26 1018.34 1018.46 1018.53 1018.58 1018.66 1018.73 1018.85 1018.90 1018.97 1019.09 1019.09 1019.05 1019.05 1019.05 1018.93 1019.02 1018.90 1018.82 1018.73 1018.61 1018.53 1018.66 1018.85 1019.05 1019.41 1019.97 1020.46 1020.82 1021.09 1021.14
1012.26 1012.46 1012.58 1012.78 1013.02 1013.22 1013.49 1013.78 1013.97 1014.29 1014.70 1014.93 1015.29 1015.70 1015.93 1016.14 1016.29 1016.34 1016.41 1016.53 1016.66 1016.93 1017.17 1017.29 1017.46 1017.53 1017.61 1017.61 1017.78 1017.97 1018.14 1018.17 1018.34 1018.41 1018.41 1018.46 1018.49 1018.58 1018.78 1018.66 1018.82 1019.02 1018.97 1018.97 1019.09 1019.09 1019.05 1019.05 1019.05 1018.90 1018.73 1018.61 1018.66 1018.82 1019.09 1019.34 1019.82 1020.22 1020.58 1021.02 1021.17 1021.22
1012.34 1012.53 1012.58 1012.82 1013.09 1013.38 1013.82 1013.93 1014.05 1014.29 1014.66 1014.97 1015.38 1015.78 1016.05 1016.22 1016.38 1016.38 1016.41 1016.53 1016.93 1017.17 1017.29 1017.38 1017.49 1017.49 1017.58 1017.46 1017.70 1017.85 1017.93 1017.97 1018.14 1018.26 1018.26 1018.26 1018.38 1018.41 1018.53 1018.46 1018.61 1018.78 1018.78 1018.93 1019.09 1019.17 1019.14 1019.14 1019.22 1019.17 1019.02 1018.78 1019.02 1018.97 1019.17 1019.61 1020.05 1020.49 1020.85 1021.17 1021.29 1021.34
1012.34 1012.53 1012.93 1013.02 1013.41 1013.90 1014.17 1014.29 1014.58 1014.78 1014.82 1014.85 1015.26 1015.61 1015.90 1016.22 1016.34 1016.46 1016.49 1016.53 1016.82 1017.05 1017.17 1017.38 1017.41 1017.41 1017.29 1017.22 1017.41 1017.53 1017.58 1017.78 1017.90 1017.97 1017.97 1017.93 1018.14 1018.29 1018.34 1018.17 1018.38 1018.53 1018.66 1018.82 1019.14 1019.29 1019.34 1019.46 1019.66 1019.82 1019.58 1020.61 1020.58 1019.58 1019.41 1019.73 1020.26 1020.66 1021.05 1021.38 1021.49 1021.53
1012.26 1012.82 1013.73 1014.09 1014.09 1014.34 1014.58 1014.73 1015.09 1015.34 1015.14 1015.02 1015.14 1015.38 1015.73 1016.14 1016.29 1016.38 1016.49 1016.53 1016.70 1017.09 1017.14 1017.22 1017.34 1017.26 1017.02 1017.09 1017.09 1017.29 1017.49 1017.58 1017.61 1017.66 1017.78 1017.85 1017.85 1018.14 1018.22 1018.22 1018.34 1018.46 1018.66 1018.93 1019.17 1019.58 1019.61 1019.49 1019.61 1019.82 1019.90 1020.90 1020.34 1020.09 1019.78 1020.02 1020.46 1020.82 1021.14 1021.38 1021.53 1021.61
1012.97 1013.46 1014.14 1014.46 1014.41 1014.58 1014.58 1014.58 1014.90 1015.49 1015.58 1015.49 1015.29 1015.14 1015.73 1016.14 1016.26 1016.34 1016.49 1016.46 1016.61 1016.93 1017.09 1017.17 1017.26 1017.17 1017.17 1017.17 1017.05 1017.26 1017.46 1017.58 1017.70 1017.61 1017.73 1017.97 1017.85 1018.02 1018.22 1018.22 1018.34 1018.49 1018.82 1019.17 1019.38 1019.41 1019.70 1019.70 1019.97 1020.02 1020.34 1021.05 1021.02 1020.49 1020.17 1020.26 1020.58 1020.93 1021.14 1021.41 1021.58 1021.70
1013.78 1014.09 1014.29 1014.05 1014.09 1014.38 1014.49 1014.82 1014.78 1014.90 1015.29 1015.61 1015.58 1015.41 1015.58 1016.02 1016.22 1016.29 1016.41 1016.46 1016.58 1016.70 1016.90 1016.93 1017.02 1017.09 1017.05 1017.02 1017.14 1017.34 1017.58 1017.53 1017.66 1017.53 1017.58 1017.73 1017.66 1017.85 1017.97 1018.14 1018.38 1018.78 1018.93 1019.22 1019.61 1019.82 1019.97 1020.09 1020.17 1020.26 1020.85 1021.34 1021.93 1020.78 1020.41 1020.58 1020.90 1020.97 1021.14 1021.38 1021.58 1021.70
1013.61 1013.58 1013.38 1013.58 1014.14 1014.46 1014.41 1014.53 1014.53 1014.70 1015.14 1015.49 1015.70 1015.90 1015.90 1016.02 1016.05 1016.14 1016.34 1016.46 1016.58 1016.66 1016.82 1016.78 1016.78 1016.85 1016.90 1017.14 1017.34 1017.41 1017.53 1017.58 1017.66 1017.53 1017.58 1017.66 1017.78 1017.78 1017.93 1018.05 1018.34 1018.66 1018.90 1019.22 1019.34 1019.70 1020.09 1020.26 1021.02 1020.53 1020.93 1021.26 1020.90 1020.85 1020.78 1021.02 1021.26 1021.14 1021.09 1021.29 1021.49 1021.73
1013.46 1013.49 1013.46 1013.70 1014.17 1014.14 1014.17 1014.34 1014.49 1014.78 1015.09 1015.26 1015.61 1015.85 1016.05 1016.05 1016.05 1016.14 1016.41 1016.61 1016.70 1016.78 1016.85 1016.78 1016.70 1016.70 1016.93 1017.22 1017.38 1017.58 1017.61 1017.66 1017.61 1017.58 1017.58 1017.70 1017.82 1017.90 1018.05 1018.34 1018.66 1018.97 1019.26 1019.46 1019.58 1019.90 1020.34 1020.73 1021.17 1020.53 1020.82 1021.17 1021.05 1020.97 1021.09 1021.29 1021.26 1021.29 1021.58 1021.58 1021.46 1021.58
1013.17 1013.09 1013.26 1013.46 1013.85 1013.97 1014.09 1014.34 1014.49 1014.82 1014.97 1015.09 1015.46 1015.82 1016.02 1016.05 1016.17 1016.29 1016.53 1016.78 1016.85 1016.78 1016.73 1016.66 1016.58 1016.73 1016.85 1017.17 1017.41 1017.58 1017.66 1017.66 1017.58 1017.61 1017.70 1017.82 1018.09 1018.14 1018.34 1018.49 1018.85 1019.05 1019.38 1019.70 1020.05 1020.22 1020.34 1020.82 1020.97 1020.58 1020.85 1021.26 1021.82 1021.61 1021.38 1021.53 1021.61 1021.66 1021.73 1021.66 1021.61 1021.66
1013.05 1013.14 1013.14 1013.41 1013.66 1013.90 1013.97 1014.26 1014.38 1014.82 1015.02 1014.97 1015.38 1015.61 1015.82 1016.14 1016.34 1016.34 1016.49 1016.73 1016.66 1016.53 1016.46 1016.53 1016.46 1016.73 1016.93 1017.05 1017.38 1017.53 1017.58 1017.58 1017.58 1017.70 1017.90 1017.97 1018.09 1018.22 1018.38 1018.78 1018.85 1019.26 1019.58 1019.78 1020.02 1020.09 1020.34 1020.97 1021.29 1021.09 1021.17 1021.22 1021.58 1021.61 1021.53 1021.53 1021.61 1021.82 1021.70 1021.66 1021.61 1021.78
1012.85 1013.17 1013.34 1013.41 1013.61 1013.85 1014.09 1014.29 1014.53 1014.82 1015.02 1014.93 1015.38 1015.73 1015.85 1016.02 1016.14 1016.22 1016.26 1016.46 1016.41 1016.46 1016.66 1016.49 1016.53 1016.70 1016.97 1017.02 1017.22 1017.41 1017.46 1017.46 1017.61 1017.78 1017.93 1018.05 1018.14 1018.46 1018.73 1018.93 1018.97 1019.09 1019.58 1019.82 1019.97 1020.29 1020.34 1020.85 1021.26 1021.38 1021.29 1021.29 1021.41 1021.53 1021.66 1021.58 1021.70 1021.85 1021.78 1021.73 1021.82 1021.93
1012.78 1013.17 1013.46 1013.70 1013.73 1013.82 1013.93 1014.26 1014.58 1014.70 1014.73 1014.78 1015.26 1015.78 1015.93 1016.22 1016.09 1016.09 1016.14 1016.26 1016.29 1016.49 1016.53 1016.46 1016.53 1016.61 1016.93 1016.93 1017.02 1017.26 1017.34 1017.46 1017.58 1017.78 1018.02 1018.17 1018.29 1018.49 1018.78 1019.05 1019.17 1019.14 1019.26 1019.73 1019.93 1020.34 1020.49 1020.58 1021.09 1021.38 1021.34 1021.46 1021.49 1021.53 1021.70 1021.66 1021.73 1021.93 1021.85 1021.90 1021.93 1022.09
1012.70 1012.97 1013.38 1013.70 1013.85 1013.93 1013.93 1014.09 1014.41 1014.70 1014.66 1014.82 1015.14 1015.53 1015.85 1016.05 1016.34 1016.38 1016.26 1016.34 1016.29 1016.46 1016.29 1016.38 1016.46 1016.61 1016.85 1016.90 1016.90 1017.09 1017.38 1017.49 1017.61 1017.82 1018.14 1018.26 1018.41 1018.58 1018.78 1018.93 1019.38 1019.26 1019.29 1019.61 1019.90 1020.29 1020.61 1020.70 1021.05 1021.41 1021.41 1021.41 1021.53 1021.53 1021.66 1021.66 1021.61 1021.70 1021.78 1021.90 1021.97 1022.22
1012.78 1013.09 1013.46 1013.70 1014.09 1014.22 1014.29 1014.38 1014.53 1014.78 1015.14 1015.78 1016.17 1016.02 1016.17 1016.14 1016.58 1016.90 1017.22 1016.90 1016.49 1016.49 1016.46 1016.41 1016.46 1016.58 1016.85 1017.05 1017.05 1017.22 1017.41 1017.53 1017.61 1017.90 1018.17 1018.34 1018.53 1018.78 1019.02 1019.05 1019.29 1019.49 1019.41 1019.53 1019.82 1020.02 1020.29 1020.70 1021.17 1021.41 1021.61 1021.66 1021.53 1021.66 1021.66 1021.61 1021.61 1021.82 1021.90 1021.90 1021.97 1022.22
1012.82 1013.05 1013.41 1013.85 1014.22 1014.38 1014.53 1014.70 1014.97 1015.02 1015.38 1015.82 1016.14 1016.66 1017.14 1016.93 1016.93 1017.66 1017.82 1017.38 1016.93 1016.66 1016.58 1016.58 1016.46 1016.61 1016.90 1017.09 1017.22 1017.41 1017.58 1017.58 1017.70 1017.90 1018.22 1018.41 1018.66 1018.82 1019.14 1019.26 1019.46 1019.53 1019.73 1019.82 1019.78 1020.02 1020.22 1020.73 1021.26 1021.53 1021.78 1021.73 1021.66 1021.70 1021.90 1021.82 1021.90 1021.97 1022.02 1022.05 1022.09 1022.14
1012.70 1012.93 1013.34 1013.82 1014.17 1014.38 1014.66 1014.82 1014.90 1015.17 1015.46 1015.53 1015.90 1016.38 1016.82 1017.02 1017.38 1017.78 1017.46 1017.41 1017.41 1017.14 1017.38 1017.14 1016.73 1016.82 1017.02 1017.14 1017.26 1017.41 1017.53 1017.70 1017.70 1017.90 1018.14 1018.34 1018.46 1018.61 1018.78 1019.02 1019.29 1019.38 1019.73 1020.14 1020.29 1020.22 1020.26 1020.53 1021.38 1022.02 1022.02 1022.09 1022.17 1021.97 1022.05 1022.09 1022.26 1022.17 1022.17 1022.22 1022.22 1022.29
1012.61 1012.97 1013.29 1013.53 1013.93 1014.29 1014.38 1014.49 1014.73 1015.14 1015.22 1015.41 1015.82 1016.17 1016.41 1016.58 1016.90 1017.29 1017.49 1017.09 1016.78 1016.82 1017.38 1018.05 1017.34 1016.93 1016.97 1017.05 1017.26 1017.41 1017.58 1017.82 1017.85 1017.90 1018.02 1018.09 1018.41 1018.58 1018.73 1019.05 1019.22 1019.53 1019.49 1019.93 1020.29 1020.09 1020.38 1020.61 1021.66 1022.14 1022.58 1022.82 1022.61 1022.46 1022.34 1022.26 1022.29 1022.26 1022.17 1022.26 1022.26 1022.38
1012.66 1013.05 1013.29 1013.53 1013.78 1014.22 1014.17 1014.29 1014.58 1014.97 1015.09 1015.53 1015.70 1015.73 1015.97 1016.41 1016.73 1017.09 1017.09 1016.90 1016.93 1016.82 1017.02 1017.97 1017.53 1016.78 1016.85 1016.97 1017.14 1017.29 1017.49 1017.66 1017.82 1017.90 1018.09 1018.38 1018.58 1018.73 1018.82 1019.05 1019.17 1019.49 1019.90 1019.93 1020.17 1020.09 1020.29 1020.46 1021.53 1021.58 1021.85 1022.53 1023.41 1023.73 1023.53 1023.17 1022.93 1022.70 1022.22 1022.26 1022.34 1022.41
1012.73 1013.05 1013.49 1013.70 1013.93 1014.02 1014.22 1014.41 1014.58 1014.90 1015.14 1015.41 1016.09 1015.97 1015.93 1015.97 1016.34 1016.53 1016.82 1016.70 1016.53 1016.53 1016.82 1017.46 1017.14 1016.61 1016.61 1016.90 1017.05 1017.22 1017.38 1017.66 1017.85 1017.90 1018.02 1018.38 1018.66 1018.85 1018.90 1019.14 1019.14 1019.38 1019.61 1020.78 1020.70 1020.66 1020.29 1020.53 1020.82 1021.46 1022.78 1022.41 1022.73 1022.85 1024.06 1023.66 1023.53 1023.09 1022.53 1022.49 1022.58 1022.46
1012.78 1013.46 1013.70 1014.05 1014.14 1014.53 1014.78 1015.09 1015.14 1015.22 1015.34 1015.66 1015.93 1016.05 1016.09 1016.29 1016.38 1016.46 1016.53 1016.58 1016.53 1016.53 1016.58 1016.90 1017.05 1016.58 1016.66 1016.93 1017.05 1017.14 1017.29 1017.53 1017.90 1018.05 1017.90 1018.22 1018.49 1018.61 1018.85 1019.02 1019.14 1019.46 1019.66 1020.22 1020.73 1020.78 1020.66 1020.53 1020.90 1020.97 1021.58 1022.22 1022.82 1023.09 1023.14 1023.22 1023.05 1023.58 1023.02 1022.85 1022.53 1022.53
1012.41 1012.82 1013.17 1013.61 1014.14 1014.70 1015.09 1015.49 1015.90 1016.02 1016.14 1016.22 1016.58 1016.34 1016.38 1016.38 1016.49 1016.61 1016.61 1016.38 1016.49 1016.49 1016.58 1016.97 1016.70 1016.58 1016.58 1016.85 1017.14 1017.17 1017.26 1017.41 1017.70 1017.82 1017.82 1018.09 1018.26 1018.41 1018.70 1018.90 1019.05 1019.29 1019.66 1019.78 1020.26 1020.78 1021.09 1020.85 1020.90 1021.05 1021.02 1021.41 1021.78 1022.38 1022.82 1022.82 1022.90 1024.21 1023.14 1022.66 1022.38 1022.02
1011.90 1012.26 1012.61 1013.14 1013.58 1014.09 1014.61 1015.09 1015.49 1015.78 1015.97 1016.26 1016.46 1016.09 1015.78 1015.78 1015.97 1016.17 1016.14 1016.38 1016.34 1016.34 1016.46 1016.66 1016.82 1016.49 1016.49 1016.66 1016.97 1017.09 1017.17 1017.26 1017.49 1017.66 1017.61 1017.82 1018.22 1018.41 1018.70 1018.82 1018.90 1019.17 1019.49 1019.70 1019.93 1020.70 1020.97 1021.14 1021.09 1021.05 1021.09 1021.17 1021.17 1021.02 1021.22 1022.17 1023.09 1023.17 1024.02 1023.34 1022.58 1022.46
1011.46 1011.66 1011.97 1012.38 1012.85 1013.02 1013.29 1013.78 1014.66 1015.41 1015.93 1016.29 1016.53 1016.14 1015.90 1015.82 1015.82 1015.93 1016.17 1016.26 1016.17 1016.26 1016.26 1016.38 1016.70 1016.53 1016.46 1016.58 1016.85 1017.05 1017.14 1017.26 1017.41 1017.46 1017.58 1017.82 1017.97 1018.14 1018.34 1018.73 1018.93 1019.02 1019.38 1019.61 1019.85 1020.34 1020.73 1020.93 1021.34 1021.58 1021.14 1021.29 1021.29 1021.09 1021.22 1021.34 1021.61 1022.26 1022.93 1023.85 1023.66 1022.78
1011.22 1011.34 1011.49 1011.49 1011.82 1012.34 1012.73 1013.22 1013.70 1014.17 1015.09 1015.53 1016.09 1016.05 1015.90 1015.85 1015.93 1016.02 1016.29 1016.38 1016.41 1016.29 1016.22 1016.29 1016.38 1016.58 1016.66 1016.61 1016.78 1016.97 1017.09 1017.17 1017.29 1017.34 1017.46 1017.66 1017.78 1017.90 1018.29 1018.61 1019.09 1019.26 1019.53 1019.73 1019.97 1020.05 1020.34 1020.90 1021.05 1021.29 1021.38 1021.41 1021.41 1021.58 1021.53 1021.49 1021.53 1021.73 1022.70 1023.46 1023.78 1023.61
1011.34 1011.17 1011.17 1011.26 1011.46 1012.22 1012.97 1013.53 1013.93 1014.09 1014.46 1014.93 1015.58 1015.78 1015.82 1016.14 1016.09 1016.09 1016.41 1016.53 1016.58 1016.53 1016.29 1016.22 1016.17 1016.17 1016.49 1016.70 1016.66 1016.82 1016.97 1017.14 1017.22 1017.26 1017.38 1017.49 1017.78 1017.93 1018.22 1018.49 1018.85 1019.22 1019.38 1019.73 1019.85 1019.93 1020.34 1020.61 1020.82 1020.90 1020.97 1021.17 1021.66 1021.90 1021.97 1022.09 1022.05 1022.26 1022.34 1022.49 1023.41 1023.70
1011.02 1010.93 1011.09 1011.58 1011.66 1011.61 1012.22 1012.90 1013.61 1013.97 1014.26 1014.41 1014.82 1015.49 1015.90 1016.09 1016.17 1016.26 1016.46 1016.61 1016.66 1016.49 1016.29 1016.22 1016.14 1016.22 1016.26 1016.38 1016.58 1016.73 1016.93 1017.09 1017.14 1017.26 1017.46 1017.58 1017.82 1017.93 1018.22 1018.38 1018.66 1018.93 1019.29 1019.73 1020.02 1020.02 1020.14 1020.26 1020.41 1020.78 1020.90 1021.02 1021.41 1021.66 1022.09 1022.41 1022.34 1022.26 1022.38 1022.82 1023.22 1023.49
1011.02 1010.85 1011.02 1011.38 1011.66 1011.49 1011.61 1012.38 1013.09 1013.70 1014.02 1014.09 1014.29 1015.02 1015.61 1015.97 1016.14 1016.29 1016.41 1016.58 1016.49 1016.38 1016.29 1016.22 1016.22 1016.34 1016.41 1016.38 1016.53 1016.78 1016.85 1016.97 1017.22 1017.34 1017.41 1017.46 1017.58 1017.90 1018.02 1018.26 1018.61 1018.90 1019.17 1019.46 1019.66 1019.85 1020.09 1020.29 1020.41 1020.58 1020.70 1020.93 1021.14 1021.41 1021.66 1021.90 1021.78 1021.90 1022.26 1022.58 1022.73 1023.29
1011.02 1010.73 1010.82 1011.05 1011.41 1011.26 1011.29 1011.73 1012.38 1013.02 1013.46 1013.73 1013.93 1014.41 1015.17 1015.73 1015.85 1016.17 1016.34 1016.46 1016.41 1016.41 1016.29 1016.46 1016.49 1016.58 1016.53 1016.53 1016.61 1016.78 1016.90 1017.05 1017.09 1017.14 1017.22 1017.38 1017.78 1017.61 1018.02 1018.29 1018.61 1018.85 1019.14 1019.38 1019.53 1019.70 1020.05 1020.17 1020.26 1020.53 1020.73 1020.78 1020.97 1021.17 1021.41 1021.34 1021.38 1021.66 1021.78 1021.97 1022.29 1023.02
1010.78 1010.46 1010.49 1010.70 1011.26 1011.53 1011.38 1011.53 1011.93 1012.49 1013.02 1013.61 1014.02 1014.29 1014.82 1015.34 1015.70 1015.90 1016.09 1016.26 1016.09 1016.17 1016.29 1016.46 1016.53 1016.58 1016.46 1016.49 1016.61 1016.70 1016.73 1016.85 1016.85 1016.97 1017.14 1017.26 1017.58 1017.61 1017.90 1018.22 1018.53 1018.73 1019.05 1019.26 1019.38 1019.66 1019.85 1019.97 1020.14 1020.34 1020.41 1020.73 1020.85 1021.05 1021.14 1021.09 1021.26 1021.41 1021.66 1021.97 1022.26 1022.26
1010.49 1010.34 1010.38 1010.49 1011.05 1011.61 1011.70 1011.73 1012.02 1012.41 1013.02 1013.58 1014.02 1014.22 1014.38 1014.85 1015.34 1015.78 1015.73 1015.97 1016.02 1015.97 1016.17 1016.26 1016.29 1016.29 1016.34 1016.46 1016.58 1016.66 1016.78 1016.85 1016.93 1017.05 1017.14 1017.38 1017.49 1017.61 1017.82 1018.09 1018.41 1018.61 1018.85 1019.14 1019.41 1019.61 1019.82 1019.97 1020.29 1020.41 1020.49 1020.53 1020.90 1021.02 1021.05 1020.97 1021.02 1021.29 1021.22 1021.41 1021.66 1021.78
1010.29 1010.22 1010.29 1010.34 1010.85 1011.46 1011.73 1011.82 1012.05 1012.49 1013.05 1013.49 1013.85 1014.02 1014.38 1014.73 1015.14 1015.38 1015.58 1015.78 1015.93 1015.97 1015.97 1016.05 1016.05 1016.22 1016.29 1016.34 1016.49 1016.66 1016.78 1016.90 1016.93 1017.05 1017.14 1017.34 1017.49 1017.70 1017.90 1018.17 1018.41 1018.73 1018.93 1018.97 1019.34 1019.58 1019.73 1019.90 1020.05 1020.22 1020.38 1020.41 1020.73 1020.93 1020.85 1020.82 1020.85 1021.02 1020.97 1020.97 1021.26 1021.38
1010.29 1010.17 1010.17 1010.26 1010.73 1011.22 1011.53 1011.85 1012.05 1012.29 1012.73 1013.22 1013.58 1013.90 1014.22 1014.58 1014.90 1015.26 1015.49 1015.78 1016.02 1015.90 1015.78 1015.78 1015.93 1016.02 1016.26 1016.26 1016.38 1016.53 1016.73 1016.85 1016.97 1017.05 1017.17 1017.29 1017.46 1017.61 1017.90 1018.17 1018.38 1018.70 1018.93 1018.85 1019.09 1019.41 1019.53 1019.73 1019.93 1020.05 1020.26 1020.41 1020.61 1020.70 1020.73 1020.66 1020.73 1020.82 1020.90 1021.02 1021.09 1021.14
Wind_Speed
12 14 12 12 10 10 12 16 13 15 16 15 14 13 11 12 12 12 12 12 11 9 8 7 7 8 12 8 9 11 10 9 10 10 9 8 9 8 7 9 10 10 9 8 7 5 3 3 4 6 7 7 9 6 2 9 8 6 6 6 6 5
11 14 12 9 9 9 10 12 12 12 11 13 13 12 9 8 11 9 12 10 7 5 6 6 7 9 6 9 10 12 10 9 8 9 9 8 8 8 8 9 11 11 10 9 8 3 2 4 6 8 8 9 5 4 7 8 8 7 8 6 5 6
12 12 13 11 9 9 11 9 11 11 9 12 10 10 9 9 8 8 8 7 4 5 6 5 6 8 7 10 10 12 11 9 7 7 8 7 7 7 8 9 10 11 10 10 6 2 2 2 3 7 7 5 5 2 5 9 8 7 7 7 4 9
11 12 11 9 8 9 8 9 8 10 9 9 8 8 9 7 8 7 5 4 3 5 5 4 9 13 12 7 8 11 11 9 6 5 7 6 6 6 8 9 10 11 8 5 4 2 3 2 2 2 3 4 2 5 4 8 8 8 7 8 7 9
11 10 11 9 9 9 9 9 8 9 8 7 7 4 4 4 4 6 5 4 5 5 5 4 5 5 5 7 7 6 5 4 3 3 5 3 4 5 5 5 5 6 4 5 2 2 1 3 3 3 4 3 2 3 6 5 8 9 9 7 5 9
10 10 9 9 10 9 9 8 9 8 8 4 2 6 4 3 3 5 4 4 5 5 4 4 5 5 5 6 6 5 5 4 4 4 6 3 4 4 4 5 5 5 5 3 1 2 1 3 2 3 2 2 1 5 6 7 9 8 8 6 6 11
9 9 11 10 8 6 4 5 7 9 9 6 4 6 5 4 3 4 4 4 4 4 4 4 4 5 5 5 6 6 6 6 6 5 6 5 5 5 5 5 6 5 4 4 2 3 2 2 2 4 5 2 5 4 5 8 8 8 7 6 6 10
9 8 4 6 6 6 4 5 6 8 8 8 7 6 5 5 4 4 4 3 4 4 4 4 4 4 5 6 6 7 5 6 6 6 7 5 6 5 6 4 5 5 4 3 3 1 1 3 6 6 7 9 6 6 4 7 9 8 7 5 5 8
10 7 7 5 5 5 4 2 4 4 7 5 4 5 5 4 4 5 6 6 5 4 4 3 4 3 3 2 3 6 5 4 3 4 6 2 3 4 2 3 3 3 3 3 2 3 2 3 2 1 3 5 1 2 6 8 9 9 7 5 5 6
4 9 7 6 4 6 6 4 4 6 7 6 4 4 5 5 5 5 5 5 4 4 3 4 4 3 4 3 3 4 3 2 5 5 6 5 5 5 4 3 3 2 3 3 3 3 1 1 4 4 3 4 3 3 3 5 8 7 6 6 5 5
10 6 7 7 7 7 7 7 7 7 8 8 7 4 4 4 5 5 4 4 3 3 3 4 5 6 5 3 2 3 3 3 4 3 3 2 2 4 4 3 4 5 3 2 4 2 2 3 2 1 8 7 1 1 7 7 7 5 7 6 5 4
7 8 13 11 6 4 3 6 6 6 7 8 10 8 5 4 4 4 5 5 4 3 4 4 2 4 3 3 3 2 2 1 1 2 4 2 2 2 2 2 5 6 6 4 4 3 3 5 3 1 7 7 2 4 6 8 5 2 3 5 6 5
10 9 8 9 7 6 4 4 5 6 6 6 6 6 6 6 4 4 5 5 5 4 5 3 5 3 4 3 3 3 3 3 2 2 1 3 3 2 2 4 5 6 4 6 4 2 5 4 2 6 5 5 5 5 6 8 4 3 3 4 2 7
8 9 9 8 8 7 5 4 5 5 7 6 5 5 5 5 5 5 4 6 5 4 3 5 4 3 4 4 4 4 3 3 3 2 3 2 2 2 4 3 4 4 5 6 5 4 4 5 4 4 5 8 6 1 6 5 5 4 2 2 4 4
7 9 9 9 9 6 6 5 5 4 6 7 5 5 4 4 3 4 5 5 6 6 5 8 4 3 3 3 3 3 3 3 4 3 3 2 3 3 3 5 4 5 4 5 4 4 5 7 4 4 4 4 5 6 5 4 4 4 3 3 4 4
11 9 9 9 7 7 7 6 5 6 6 7 6 5 5 6 5 3 5 6 7 7 8 7 3 3 3 3 4 3 3 4 4 3 4 3 2 4 5 5 3 4 4 5 5 5 4 7 5 4 2 4 5 4 5 3 4 4 2 2 4 4
11 9 10 8 7 8 6 8 7 6 7 7 6 5 3 5 6 6 4 6 6 8 9 5 4 2 2 1 4 3 3 4 3 3 3 3 2 5 5 4 3 2 2 4 6 7 4 4 6 4 3 4 5 5 5 4 4 4 3 3 4 4
10 9 8 8 8 7 6 7 6 4 6 8 5 6 3 3 3 4 5 5 5 3 3 5 4 2 3 1 2 2 4 4 3 4 3 3 3 5 4 5 4 2 2 3 4 6 4 4 5 4 3 4 4 4 4 4 5 4 3 3 5 4
10 9 8 9 7 6 6 6 4 4 5 7 6 4 4 4 2 3 4 4 7 4 4 3 3 2 2 1 1 3 2 4 3 4 3 3 2 6 5 4 4 3 2 2 3 3 4 5 5 5 4 3 3 5 3 3 4 4 3 2 4 6
9 9 9 7 7 7 6 6 6 5 4 6 5 7 5 1 2 2 5 5 1 1 4 3 5 4 3 2 2 3 3 3 3 3 3 3 4 5 6 6 4 3 3 1 2 3 4 6 5 4 5 3 3 5 5 3 3 2 3 2 3 2
10 9 8 8 8 5 7 5 4 5 5 5 6 6 8 6 5 2 7 2 3 6 5 1 2 2 3 2 3 3 2 2 2 3 3 2 5 5 5 5 5 3 5 3 4 4 5 6 7 5 4 4 4 4 4 3 3 2 2 2 3 3
9 9 8 8 7 6 4 4 4 4 4 4 7 7 6 7 7 4 3 4 5 4 2 5 5 6 3 5 3 3 3 4 3 3 3 4 6 4 6 4 3 3 3 4 3 4 7 6 5 5 5 4 3 4 2 1 3 4 2 3 1 3
8 9 7 7 7 6 5 4 3 3 3 4 5 5 6 7 7 7 5 4 2 2 3 5 8 5 4 3 3 4 4 3 2 2 3 5 5 4 4 5 4 3 4 2 2 2 5 2 3 4 5 5 4 4 1 0 4 3 3 4 1 3
8 7 6 6 5 5 5 6 6 6 5 4 5 7 7 6 7 5 4 4 4 4 4 1 6 5 4 4 3 4 4 4 3 2 3 5 6 5 5 3 3 3 4 7 3 3 2 3 2 5 5 1 4 4 5 1 5 1 3 2 3 2
7 4 4 3 4 3 4 5 5 7 6 6 4 4 6 3 4 4 5 4 5 4 4 6 7 3 3 4 4 2 3 5 7 5 3 4 4 5 6 5 5 3 3 4 4 2 2 3 3 2 1 2 3 2 2 5 4 3 2 2 3 6
8 8 7 9 8 7 4 5 3 1 4 4 3 5 6 6 6 5 6 5 5 5 3 3 6 6 5 5 5 3 3 4 4 4 5 4 4 4 4 5 5 4 4 2 6 5 3 3 2 2 1 2 0 1 5 6 5 3 2 2 3 5
9 7 9 9 10 9 8 7 7 4 3 3 5 4 3 4 5 4 5 6 5 6 6 7 3 6 4 5 6 4 4 4 6 4 3 4 5 4 4 4 2 4 5 4 5 5 5 2 2 1 1 0 0 1 4 5 2 6 5 1 1 2
10 10 9 12 12 12 12 11 9 5 4 1 3 3 4 3 3 4 4 3 0 3 4 3 4 6 3 5 4 3 3 3 4 5 4 3 4 5 4 5 4 5 6 5 4 4 5 4 4 2 1 1 1 2 2 2 5 2 5 6 3 3
10 10 11 16 15 13 10 12 11 11 9 6 3 3 3 2 3 3 4 2 0 1 3 6 6 5 4 4 5 5 5 4 4 4 5 5 2 4 4 5 7 7 7 5 3 2 4 4 2 3 2 1 2 2 2 1 3 3 3 5 4 3
9 8 8 11 13 12 11 10 9 10 11 8 6 4 5 4 2 3 3 2 1 2 3 4 3 3 6 6 6 5 4 3 3 3 3 4 4 4 4 5 6 7 7 7 4 4 4 3 3 2 2 1 3 2 2 1 1 2 3 3 5 6
10 7 7 7 9 14 13 12 11 11 10 12 11 8 5 5 3 3 4 2 2 3 2 3 2 3 3 4 3 4 4 4 3 3 3 3 5 5 5 5 6 7 8 7 7 6 4 3 3 3 2 1 4 2 2 2 3 4 2 2 3 4
8 8 8 9 10 12 13 14 12 11 11 11 12 10 8 7 5 5 4 4 3 3 3 2 2 1 2 3 3 4 3 3 4 5 4 2 3 4 6 5 5 5 5 6 6 6 5 4 4 4 4 4 4 4 2 2 2 4 3 3 4 6
10 9 10 10 11 12 14 14 13 13 10 9 10 11 8 6 5 5 4 4 4 3 2 4 2 3 2 2 2 2 3 4 3 2 3 4 4 4 5 5 5 4 5 5 5 5 5 4 3 3 4 4 4 4 4 3 3 3 4 4 2 7
10 9 9 10 9 10 12 13 13 11 10 9 8 9 8 5 4 4 3 2 2 3 4 4 4 4 3 3 2 1 1 2 3 3 2 3 2 3 5 6 5 5 5 5 4 3 4 4 3 4 3 4 3 4 2 3 3 2 3 5 4 5
10 10 10 10 9 10 9 11 11 9 9 7 8 8 7 7 6 5 4 3 2 2 4 4 4 5 3 3 3 3 2 2 2 3 3 3 2 2 4 3 4 4 5 3 4 3 3 4 4 5 4 4 4 2 3 4 4 3 3 4 3 3
12 11 11 12 10 9 10 10 10 11 10 10 9 8 6 5 4 2 2 0 2 4 4 4 4 5 4 3 3 3 3 3 3 3 3 3 3 3 4 4 3 6 6 4 6 5 3 4 4 4 4 5 5 3 3 3 3 4 3 2 2 2
13 11 13 12 11 11 11 11 12 12 12 12 10 10 9 9 7 5 4 3 5 6 5 5 4 5 4 3 3 3 3 4 3 3 3 3 3 3 5 3 3 6 4 5 5 5 4 3 3 3 3 4 4 3 3 3 3 3 2 3 2 4
Wind_Direction
157 153 149 147 144 141 140 135 129 129 131 131 131 133 137 140 137 141 146 145 143 149 138 133 138 130 132 135 129 135 135 133 130 131 131 129 123 125 126 134 138 141 141 151 165 168 210 258 267 281 286 286 291 300 146 97 93 102 92 87 86 92
157 155 150 149 146 141 144 144 142 139 136 135 133 134 138 146 149 149 150 151 145 161 139 147 141 140 134 132 132 136 139 141 142 133 129 130 126 130 139 141 148 150 156 161 166 170 192 254 276 282 285 292 301 261 109 105 96 89 86 85 94 113
155 151 149 150 145 145 150 147 144 142 141 135 146 148 152 157 155 150 158 154 149 141 119 123 139 144 138 142 139 141 144 147 147 132 130 133 130 136 147 153 158 162 165 170 182 180 185 171 232 250 271 277 260 66 71 97 100 94 90 86 81 98
140 150 152 150 147 151 155 151 149 146 145 145 152 163 163 162 156 149 129 123 131 126 110 130 145 137 137 134 137 141 147 152 150 148 142 141 147 146 150 159 168 170 176 190 214 196 180 184 198 201 230 253 168 117 119 102 104 107 110 106 99 101
148 150 158 150 150 155 159 157 151 142 144 146 158 107 68 86 109 123 136 142 146 132 130 127 123 137 140 140 143 145 149 160 170 170 178 186 173 161 170 169 168 177 201 207 204 266 292 192 207 216 222 211 142 105 73 83 95 84 82 90 103 102
152 156 163 155 157 156 163 158 151 141 119 108 86 95 103 103 111 121 144 150 120 118 122 131 145 156 155 168 149 154 167 164 176 181 188 193 191 164 196 183 170 187 199 181 175 274 256 308 329 294 317 120 143 95 105 81 85 98 99 104 119 115
152 160 163 154 151 142 116 138 130 126 139 145 131 118 129 134 144 133 144 132 118 125 141 152 167 177 180 176 161 165 180 169 176 171 196 185 192 163 207 191 169 188 180 182 155 195 240 257 339 343 319 50 16 60 96 96 96 96 98 101 110 115
155 159 154 119 110 93 98 98 116 120 130 146 135 137 147 146 158 139 126 140 139 150 156 165 187 197 205 185 173 170 173 166 181 171 193 221 168 175 213 197 153 193 190 179 138 144 3 19 30 355 342 40 333 0 43 86 103 102 104 107 107 110
159 118 64 0 84 92 61 67 105 119 138 128 133 145 135 148 161 145 156 167 163 163 164 183 199 207 244 199 175 140 191 154 162 181 160 229 185 165 206 207 175 154 147 91 94 56 26 47 128 216 62 71 103 20 54 89 100 104 112 115 102 115
56 63 85 92 112 127 142 154 114 169 138 152 173 148 144 163 156 159 160 157 161 168 197 190 197 197 219 208 147 140 149 178 162 191 160 183 201 177 176 210 144 105 68 99 63 73 58 68 46 326 75 138 18 318 61 82 92 93 97 103 116 113
76 109 135 141 177 145 138 154 170 148 145 144 147 159 176 149 166 156 145 147 149 198 223 237 181 200 195 147 125 125 179 176 181 158 131 177 168 162 174 167 103 104 107 99 103 98 2 42 44 25 43 40 292 256 77 68 69 95 116 121 130 131
123 135 152 166 144 129 118 153 150 128 122 131 142 161 161 163 155 150 137 155 168 208 241 263 228 201 135 125 139 152 157 125 145 128 153 171 122 90 109 88 93 94 118 104 97 80 79 80 340 285 102 129 133 49 57 76 71 62 81 124 127 116
159 148 158 146 129 155 150 136 117 104 115 131 126 138 153 164 150 145 146 156 185 198 237 248 231 172 143 155 163 160 183 140 180 145 129 123 124 91 59 97 90 125 117 120 114 112 109 94 220 56 84 83 74 52 78 89 103 72 36 17 67 134
149 145 155 139 145 153 155 132 110 114 135 130 133 137 143 154 151 160 155 181 183 205 196 249 202 174 161 165 152 177 165 152 131 133 94 98 116 155 167 118 108 83 102 118 122 135 127 92 39 49 59 92 96 102 85 95 111 111 96 69 53 63
153 143 145 146 144 151 143 122 138 137 142 131 128 134 142 147 168 176 161 183 183 194 213 221 196 159 190 146 149 164 159 145 127 132 137 174 154 171 89 84 103 108 110 109 127 112 98 90 119 76 86 97 118 94 91 103 105 97 101 87 62 78
152 147 142 147 135 137 136 146 150 156 150 119 117 131 159 164 175 207 181 187 173 195 213 203 181 157 189 177 164 156 170 132 140 166 148 145 181 103 93 100 100 110 119 113 125 111 115 117 130 99 103 82 90 90 107 110 106 94 95 85 91 85
154 148 146 145 138 129 142 147 161 159 139 120 114 139 177 169 193 195 189 193 183 187 186 166 178 171 131 187 164 151 130 128 159 143 119 158 148 102 105 102 79 66 94 124 133 121 118 115 116 118 99 101 106 121 109 136 121 128 149 136 120 100
152 148 149 143 144 138 139 133 141 145 121 124 140 163 165 177 241 223 195 181 152 209 184 160 142 134 145 310 149 139 129 145 170 120 143 169 121 112 106 108 117 99 91 106 105 120 133 113 106 105 109 107 118 110 122 128 142 132 121 134 119 120
148 150 146 145 127 131 126 117 115 129 109 106 145 155 139 174 253 344 295 191 176 154 146 138 139 156 120 248 143 102 128 157 140 144 159 150 113 120 124 123 118 117 77 79 95 117 111 105 98 114 119 124 123 118 103 93 84 100 122 122 127 132
149 154 147 128 152 148 144 143 139 135 121 136 144 127 122 62 94 16 330 330 313 127 150 166 161 176 174 196 125 109 150 163 143 158 170 160 142 131 133 134 136 142 134 104 102 112 124 119 120 120 109 105 96 104 117 126 113 114 130 149 98 95
154 153 155 149 160 155 150 145 144 145 153 147 123 119 136 128 98 158 169 170 24 340 341 357 163 232 154 81 127 154 155 123 184 162 145 145 112 123 133 126 145 160 134 146 140 165 124 121 120 98 96 110 107 112 116 129 121 129 158 84 126 128
156 158 157 157 149 161 162 161 151 144 133 138 138 140 119 133 147 172 233 160 159 145 124 305 236 191 159 150 166 135 155 149 231 137 159 128 115 119 127 140 158 129 148 142 123 135 137 144 138 135 137 111 88 60 48 82 133 152 140 130 151 145
159 156 158 160 153 161 161 139 138 90 96 107 79 97 121 127 131 166 192 120 126 153 131 215 233 179 163 160 155 161 152 142 175 118 162 117 123 134 138 145 160 139 119 61 87 128 136 147 122 151 126 125 135 130 176 54 34 289 153 128 180 122
156 159 163 158 168 157 139 100 82 89 76 64 101 108 126 156 132 152 141 151 158 198 167 232 245 168 164 159 149 156 150 127 111 241 150 136 149 145 137 171 147 162 143 124 196 129 133 68 98 148 162 186 158 138 121 155 146 165 18 128 140 165
140 123 135 134 106 79 111 81 68 78 82 82 76 122 131 130 124 144 145 170 183 196 193 172 242 176 153 140 174 161 162 154 132 227 150 138 151 148 154 170 153 161 146 132 133 119 111 99 69 45 87 135 126 196 121 139 128 95 189 214 168 162
128 153 147 137 117 90 71 91 53 149 123 113 152 162 154 158 151 165 163 175 176 200 194 225 203 204 160 169 166 178 169 159 130 216 154 151 152 146 164 163 153 147 117 109 139 130 130 70 55 51 15 79 312 158 144 152 155 137 183 209 217 140
148 155 153 146 144 144 156 156 178 160 118 130 183 168 145 148 142 164 150 168 184 178 189 218 208 222 160 165 164 167 175 175 152 199 166 157 148 156 169 155 124 155 129 119 127 138 144 125 63 20 301 352 238 305 121 155 136 127 129 8 333 102
157 160 157 154 166 166 165 160 155 118 108 175 245 180 148 132 91 111 104 129 126 159 180 181 193 192 184 150 145 153 171 172 176 172 162 147 160 165 159 146 153 87 89 96 90 115 139 142 145 180 214 131 324 86 89 62 138 154 133 136 147 85
162 157 170 166 166 161 156 156 149 161 160 170 202 181 147 115 121 96 107 55 18 230 211 168 221 159 159 187 155 172 190 182 181 168 168 162 164 154 122 115 123 122 118 113 108 135 134 128 154 166 150 214 158 120 109 63 73 46 130 135 133 137
172 175 177 163 150 139 138 147 155 176 157 149 168 172 167 162 139 127 105 119 165 278 248 171 180 180 157 181 176 175 179 180 182 166 189 135 167 133 121 135 115 121 123 124 139 149 144 145 165 144 151 143 106 116 90 63 103 90 116 148 144 150
174 165 164 158 157 147 149 152 158 174 166 150 155 154 161 169 145 128 136 154 204 215 245 170 163 157 184 164 166 162 176 198 167 127 194 175 159 139 130 132 123 128 129 143 152 150 132 145 138 137 127 114 122 127 145 149 175 163 151 137 125 146
164 163 163 167 171 154 150 154 157 168 172 161 148 154 166 168 164 151 160 164 197 184 191 134 132 133 166 176 160 161 178 179 143 175 190 123 106 149 139 120 116 136 142 142 142 141 148 150 151 146 125 97 118 124 133 177 190 149 158 164 159 149
170 165 164 167 170 158 151 155 159 170 173 161 153 149 151 157 158 151 168 170 178 164 166 137 153 147 186 149 153 168 163 159 158 165 160 139 182 143 130 133 133 135 132 133 142 144 146 150 144 135 114 122 127 138 152 177 175 192 162 146 144 165
182 168 166 164 167 161 155 154 160 167 160 157 147 134 142 139 137 141 159 203 176 169 162 161 163 164 163 148 155 167 160 149 145 138 133 113 129 126 139 146 154 149 146 131 135 140 142 134 128 125 145 149 148 145 165 185 187 190 180 148 198 179
187 172 173 162 165 163 155 155 157 156 145 142 143 147 142 143 144 156 178 159 209 202 169 167 163 140 161 167 164 163 161 135 116 137 137 131 149 127 121 110 151 136 112 124 150 139 143 149 144 152 166 139 116 148 175 202 185 191 204 177 153 180
190 181 177 167 162 165 152 153 152 147 146 143 141 139 122 126 120 125 150 162 212 200 184 169 156 149 164 170 147 154 148 157 149 137 140 137 150 141 114 112 103 120 135 156 135 148 140 164 157 166 157 135 147 172 206 193 195 179 222 144 130 250
193 185 182 173 164 166 156 164 162 158 152 151 149 148 153 165 162 164 143 163 245 207 190 159 156 142 158 162 155 158 169 138 137 134 137 139 132 131 127 136 131 138 158 157 146 150 160 161 168 150 154 150 160 164 197 189 204 171 214 113 178 249